Presure
121 133 115 95 106 93 98 126 148 134 150 149 152 158 127 147 127 131 127 119 127 128 121 131 98 128 134 127 122 138 122 135 139 134 131 136 110 134 140 129 127 127 132
125 125 134 125 121 112 131 138 131 141 133 149 157 156 152 122 146 157 140 130 126 127 147 127 133 143 134 134 129 138 133 132 133 136 148 133 133 131 122 130 128 127 128
124 124 132 130 132 95 128 128 91 132 121 141 143 158 144 161 139 148 144 114 134 132 132 143 130 128 142 131 143 132 131 105 143 127 134 139 140 105 123 129 134 116 135
132 126 131 136 130 125 106 118 133 119 107 114 133 115 153 149 155 149 135 162 148 128 122 136 120 144 142 130 133 135 141 141 143 129 128 122 137 118 132 133 131 141 142
139 100 95 123 121 133 117 111 126 108 128 92 116 124 117 157 127 138 142 141 154 152 143 135 150 141 148 142 139 134 132 142 136 145 146 141 139 137 135 115 141 137 133
127 144 136 140 101 121 131 131 134 116 139 132 96 112 128 125 147 116 130 156 152 148 153 163 126 133 139 138 153 138 146 135 145 141 145 125 132 94 144 130 114 131 141
147 145 134 125 135 131 114 134 131 133 125 123 133 130 121 130 132 141 129 119 129 146 138 134 133 130 143 151 138 127 139 139 151 127 126 152 151 119 151 122 137 141 136
138 143 146 147 155 131 112 122 137 138 136 126 138 114 129 137 131 131 120 119 131 114 133 151 155 129 161 152 169 159 161 155 126 156 173 169 125 158 151 152 129 132 157
136 138 121 146 139 143 149 152 142 132 140 121 113 126 118 120 136 131 135 111 128 138 137 147 158 159 151 152 163 154 145 164 153 141 153 130 135 124 130 119 125 160 132
146 125 147 136 143 147 141 157 136 124 120 122 143 121 120 135 147 128 126 148 96 141 143 132 127 128 153 154 137 156 152 142 161 125 130 150 157 143 152 146 124 116 110
147 136 141 141 170 148 150 126 142 138 175 139 140 118 130 125 98 147 126 139 134 121 136 128 140 141 128 123 126 126 141 140 136 120 127 125 147 132 123 131 115 117 110
139 149 143 133 138 162 132 140 151 154 136 148 145 146 127 142 149 138 117 141 156 126 123 127 147 145 146 139 124 134 132 125 134 139 143 140 111 134 122 114 122 114 111
144 134 132 154 151 156 151 131 139 141 154 130 133 166 146 151 133 147 128 125 147 128 131 153 122 136 111 125 141 136 141 129 112 130 135 135 140 118 106 125 132 125 103
145 147 148 149 148 145 149 154 155 138 132 129 145 161 158 145 134 145 143 150 152 141 128 132 140 135 142 145 139 142 146 153 145 143 108 109 100 100 107 109 123 131 108
150 149 152 152 160 165 159 150 163 155 130 151 154 125 131 139 139 126 135 133 129 158 149 134 138 135 132 144 145 101 123 141 131 141 106 128 120 100 100 101 119 101 100
178 178 178 169 166 157 167 161 171 178 170 162 161 148 131 153 162 159 152 136 155 140 132 131 135 139 135 120 128 138 149 150 124 133 150 127 117 96 95 110 140 104 97
170 170 169 165 164 163 162 161 162 162 171 169 155 153 165 160 161 160 159 154 164 159 147 167 131 157 148 139 133 131 133 134 133 142 143 138 136 146 127 121 109 137 120
194 194 173 173 173 175 176 182 181 171 170 171 170 179 180 179 167 173 175 173 177 164 178 183 182 180 165 142 152 169 153 146 168 125 129 131 120 150 146 177 175 131 117
204 208 211 215 217 218 218 219 226 210 195 190 189 186 193 182 179 178 178 179 179 178 177 181 181 182 183 185 187 190 172 161 140 124 149 139 143 140 168 140 141 169 168
196 192 178 182 192 196 199 203 207 211 214 214 216 220 221 224 232 236 198 194 221 195 217 192 193 214 208 194 188 179 176 180 181 147 135 180 112 136 167 111 112 126 137
192 192 194 197 198 201 201 201 199 173 179 184 189 194 197 201 205 207 211 215 217 217 223 231 233 236 192 244 243 205 204 202 194 191 201 135 189 188 184 133 172 103 142
243 252 252 242 239 198 187 188 190 191 193 201 202 206 207 194 182 176 185 188 191 194 196 205 210 215 218 222 226 231 233 239 244 245 228 214 204 185 181 192 193 140 139
189 190 196 209 209 208 239 238 230 213 188 185 185 188 193 195 196 198 199 202 204 208 210 194 196 185 192 197 204 206 209 213 215 225 230 236 248 249 220 205 191 181 191
181 197 191 191 189 204 201 217 233 229 225 222 202 198 192 184 175 176 180 182 184 187 191 195 199 203 204 208 212 215 210 208 184 187 203 211 219 198 237 253 197 153 188
184 189 194 194 192 195 195 202 193 225 226 222 221 220 221 215 218 200 196 195 194 188 190 189 188 184 185 189 192 197 205 208 209 212 211 214 220 193 204 223 237 243 250
180 179 177 190 189 188 186 194 200 205 225 225 220 218 220 218 218 216 205 210 214 216 219 220 220 218 213 210 209 206 207 207 209 220 209 195 198 206 217 228 218 214 239
Wind_Speed
39 39 32 29 30 28 28 35 39 37 40 42 43 45 36 57 36 47 43 32 39 38 46 43 26 33 52 46 30 43 32 47 47 42 41 50 35 46 50 44 42 43 49
40 40 44 40 38 34 39 39 39 41 39 41 42 47 56 35 56 73 62 49 39 41 67 40 49 56 51 49 37 52 41 38 40 45 58 42 47 42 38 46 41 40 44
44 43 46 45 45 35 42 42 34 40 39 44 44 47 48 54 51 63 63 34 52 49 49 66 44 41 65 43 63 43 41 35 59 37 44 49 53 35 38 41 44 38 50
55 48 52 54 48 44 39 41 45 43 38 39 45 39 52 54 58 51 51 66 77 46 38 60 36 67 65 44 51 57 61 56 62 40 38 38 55 39 49 50 41 57 52
58 47 46 50 47 54 48 43 46 43 48 39 44 46 44 54 46 54 58 57 75 78 75 61 78 67 75 69 67 55 48 67 58 68 74 63 62 56 52 45 61 45 39
57 64 67 58 48 50 57 56 57 47 56 52 41 45 50 50 55 46 50 62 65 69 69 65 50 52 57 55 84 60 71 54 71 65 67 42 44 25 71 39 46 41 52
60 65 70 55 63 58 52 64 59 60 53 53 56 56 53 55 56 58 55 50 53 64 64 61 59 55 67 78 50 49 59 60 80 43 42 75 79 44 77 43 60 53 46
61 63 70 69 66 64 57 63 70 69 68 57 63 55 58 61 58 59 54 53 59 49 59 65 66 59 66 66 61 75 69 68 46 71 59 69 46 82 72 77 50 56 58
72 73 62 75 77 78 73 64 75 70 70 59 58 60 58 58 64 62 64 51 61 64 61 62 65 66 69 68 62 71 65 62 72 63 70 47 49 47 47 51 51 62 52
75 73 74 79 80 80 80 70 82 70 64 66 77 62 60 70 74 65 64 73 52 69 68 64 63 61 69 67 63 66 65 63 65 51 49 66 69 65 69 62 50 49 46
81 84 82 82 79 87 85 75 79 78 73 82 79 69 77 71 57 78 65 71 69 63 69 64 68 71 65 60 61 59 65 64 64 54 53 53 66 58 53 52 53 51 50
84 87 89 87 86 86 86 90 87 84 79 82 87 85 75 85 83 80 67 77 80 70 68 68 78 77 76 73 63 67 64 60 63 67 67 64 56 60 56 53 56 52 51
88 88 87 94 94 90 91 84 90 92 94 85 84 93 90 90 80 87 76 74 88 74 73 84 68 75 62 66 76 72 73 68 62 66 66 65 69 60 56 60 59 55 49
92 95 95 95 92 92 94 99 99 98 92 89 97 95 95 94 90 96 96 95 95 90 78 76 84 81 83 83 78 79 80 82 78 77 61 61 57 58 60 61 62 62 55
105 101 105 104 108 111 110 102 111 107 95 102 102 85 92 98 99 82 94 93 87 101 99 88 91 87 82 87 88 70 70 84 74 80 65 74 70 61 62 61 65 58 56
105 108 111 112 115 111 118 112 114 112 115 114 112 104 98 103 108 109 106 88 108 105 91 86 90 93 86 74 76 85 94 93 75 82 87 72 68 64 64 68 79 64 59
103 104 106 108 109 110 110 109 111 111 113 116 110 109 121 115 115 112 110 108 113 109 109 113 91 112 102 97 84 84 85 81 82 89 90 85 81 85 73 74 73 81 71
98 99 104 106 107 109 111 111 111 113 113 113 115 114 115 115 118 120 120 119 121 114 120 120 120 122 116 104 107 113 108 103 103 82 84 84 80 94 90 86 86 79 74
79 80 81 83 83 85 88 89 86 99 110 112 114 115 114 116 116 117 118 119 119 119 119 119 119 119 117 115 113 111 97 105 101 89 93 93 95 91 88 90 89 83 85
83 87 93 92 89 89 89 88 88 89 90 92 91 90 91 92 90 90 112 114 105 117 108 119 119 117 118 120 118 115 114 113 111 110 97 106 89 92 99 86 88 83 86
81 83 83 84 86 87 89 90 93 100 100 100 100 99 100 100 100 100 100 99 100 102 100 98 99 100 117 100 104 117 118 118 115 113 110 98 106 104 99 91 96 87 96
56 62 67 71 74 87 92 93 95 96 96 94 95 95 97 103 107 110 109 107 107 107 107 104 104 104 104 103 102 100 101 103 101 104 113 114 110 107 105 99 96 98 98
66 66 59 54 55 58 71 78 83 93 101 101 102 102 101 101 102 102 103 103 104 104 104 109 110 112 112 111 110 108 107 105 108 107 103 103 102 105 110 106 100 95 91
72 60 65 67 73 60 68 70 79 82 87 93 104 106 107 108 107 107 108 108 108 108 109 110 110 110 111 112 112 112 110 108 109 109 113 108 107 94 103 100 106 96 94
71 68 65 67 70 69 73 74 80 82 86 88 91 95 99 104 104 113 115 115 114 115 116 117 116 113 112 113 113 113 115 113 111 108 108 116 111 109 107 106 103 97 100
74 75 78 72 74 77 81 81 83 81 88 91 93 95 95 97 100 105 111 111 110 111 113 115 118 120 121 122 122 121 120 119 118 117 112 111 116 114 109 107 105 100 98
Wind_Direction
242 239 242 263 247 267 265 234 222 234 223 219 219 221 240 219 240 230 233 245 239 243 230 244 243 246 236 240 234 244 243 249 240 253 258 255 264 261 257 266 264 266 273
246 242 241 235 236 243 236 236 234 226 233 227 225 218 218 250 224 221 226 236 243 244 229 245 245 243 239 242 253 250 253 249 255 261 246 252 255 258 254 262 261 264 271
246 247 247 246 242 258 241 232 263 236 240 231 231 226 225 221 230 223 229 253 238 240 239 233 246 248 238 251 245 252 254 260 255 243 249 258 255 259 252 258 264 259 270
246 249 249 245 249 245 249 243 239 239 251 246 238 246 225 223 221 234 240 228 229 253 254 241 250 238 241 251 253 245 254 255 253 248 244 244 264 249 260 260 259 270 273
239 252 257 251 251 250 253 251 241 248 240 258 246 242 246 232 245 242 234 237 228 232 235 244 236 243 243 243 247 252 251 254 255 255 254 257 257 261 258 258 268 270 264
251 240 247 247 255 251 252 252 249 246 249 243 256 250 244 243 240 248 244 230 230 227 232 238 252 253 249 248 243 250 252 251 254 254 259 240 250 248 264 250 252 259 272
242 242 249 246 249 247 253 251 254 252 249 247 246 246 247 244 242 238 242 248 245 236 244 249 251 253 248 245 249 249 255 253 256 249 247 260 259 245 261 246 261 266 263
248 248 242 240 239 245 252 250 251 250 252 251 250 250 248 251 247 247 249 250 243 249 246 240 239 249 240 245 245 245 248 250 245 255 259 260 243 261 263 267 255 257 266
247 247 258 241 247 245 245 250 247 253 249 251 247 248 249 250 249 250 249 253 248 243 246 247 243 243 240 240 244 242 246 251 249 253 255 246 257 242 244 244 248 263 259
244 259 241 249 248 244 248 246 252 255 251 254 250 253 250 256 251 252 251 251 257 250 247 247 248 250 245 243 247 243 246 251 253 248 249 255 257 257 263 266 248 255 263
253 248 241 251 258 246 246 255 246 248 248 252 253 251 254 256 252 253 253 252 253 254 252 252 250 249 251 252 253 252 247 250 251 250 249 247 255 257 248 251 251 251 261
257 251 249 252 255 252 256 250 252 247 251 250 250 251 258 256 250 257 252 251 250 251 249 254 252 252 251 252 252 253 252 251 252 252 253 254 250 253 253 251 252 254 257
253 254 251 261 254 259 252 259 256 253 248 259 259 249 253 250 255 250 256 253 254 257 254 252 252 254 247 252 253 255 255 252 253 252 252 253 255 249 255 253 256 254 259
254 256 256 258 257 254 256 258 256 251 258 261 252 253 250 251 259 257 257 252 251 258 253 252 257 256 255 254 255 254 253 253 255 255 251 251 251 253 254 255 254 258 259
253 254 255 256 257 258 259 257 259 256 258 254 253 258 262 259 256 260 257 260 259 253 253 257 256 255 257 256 256 247 250 254 253 256 250 253 253 251 252 254 256 256 256
255 256 256 256 257 257 258 258 260 261 259 259 259 255 259 255 259 259 260 258 256 256 259 261 259 258 257 252 255 257 255 256 249 254 257 253 251 250 252 254 258 255 254
253 254 254 255 256 256 257 257 258 258 259 259 259 259 261 260 261 260 259 257 261 257 255 261 259 256 257 259 256 257 258 256 256 256 256 256 256 257 254 254 255 261 258
257 258 257 258 258 259 259 259 259 258 258 259 260 263 263 262 263 263 263 263 264 260 263 264 264 265 259 259 255 258 253 256 261 251 255 256 247 257 258 261 259 258 257
258 259 259 259 259 259 261 262 263 262 262 263 263 263 263 263 262 262 262 263 263 263 263 263 262 262 262 263 264 264 256 258 257 248 257 258 259 258 258 258 259 261 260
258 258 258 258 260 260 261 262 262 263 262 263 263 263 263 263 264 263 263 263 264 263 263 263 263 262 262 262 262 261 260 260 259 255 254 260 250 255 258 253 246 253 258
260 260 261 262 262 262 262 261 262 261 262 263 264 264 264 263 263 264 264 263 263 263 264 264 263 263 262 261 261 262 262 261 261 260 260 253 259 259 256 248 254 257 258
269 269 268 268 269 265 264 263 263 263 263 263 263 264 264 263 263 263 264 264 264 264 264 264 264 263 262 263 262 262 263 265 262 261 261 259 257 256 256 255 254 253 256
260 261 267 273 272 272 273 271 269 266 263 263 263 263 263 263 263 264 265 265 265 266 265 263 263 263 263 262 261 260 260 260 263 263 261 261 260 259 255 254 252 249 248
261 269 266 267 267 280 275 277 273 271 269 267 262 262 262 262 262 263 264 265 265 266 265 265 265 264 264 264 264 263 262 260 259 261 263 260 260 258 258 257 252 252 247
263 268 276 275 274 277 276 282 271 273 270 268 267 267 266 264 266 263 263 263 264 264 264 264 264 264 264 264 265 265 265 263 261 259 258 263 259 256 256 256 255 251 251
266 267 267 278 276 275 273 281 284 284 275 273 270 268 268 267 267 266 265 266 265 265 266 266 265 265 265 265 265 265 265 265 264 263 258 256 261 259 259 258 257 255 250